Location: Dead Woman Crossing
(43.5369°N, 106.3228°W)
Time: 19:51:11
(UTC+00:00)

deb Delta 126 - Pass Details

Date: 19 December 2022
Orbit: 1045 x 1647 km, 101.7° (Epoch: 03 February)

Event Time Altitude Azimuth Distance (km) Brightness Sun altitude
Rises 12:04:18 0° 149° (SSE) 4,101 ? -26.1°
Reaches altitude 10° 12:07:01 10° 147° (SSE) 3,069 ? -25.7°
Maximum altitude 12:13:45 64° 67° (ENE) 1,195 ? -24.4°
Drops below altitude 10° 12:20:03 10° 348° (NNW) 2,874 ? -23.3°
Enters shadow 12:20:34 - 347° (NNW) 3,069 ? -23.2°
